• In Belarus
  • List of Countries
  • For 7 days
  • Water Temperature
  • Weather Map
  • Weather Widgets
  • user-avatar
    Login

    Hourly Weather Vanadzor

    Today, 18 February, Tuesday

    Time Temperature Precipitation Wind Pressure Humidity
    00:00 -8°C° 0 mm 1 mps 639 mmHg 93%
    01:00 -8°C° 0 mm 1 mps 639 mmHg 92%
    02:00 -8°C° 0 mm 1 mps 638 mmHg 91%
    03:00 -8°C° 0 mm 1 mps 638 mmHg 90%
    04:00 -8°C° 0 mm 1 mps 639 mmHg 89%
    05:00 -7°C° 0 mm 1 mps 639 mmHg 88%
    06:00 -7°C° 0 mm 1 mps 639 mmHg 88%
    07:00 -6°C° 0 mm 1 mps 639 mmHg 87%
    08:00 -3°C° 0 mm 1 mps 640 mmHg 86%
    09:00 -2°C° 0 mm 1 mps 641 mmHg 85%
    10:00 0°C° 0 mm 1 mps 641 mmHg 85%
    11:00 +1°C° 0 mm 1 mps 640 mmHg 86%
    12:00 +2°C° 0 mm 1 mps 640 mmHg 87%
    13:00 +2°C° 0 mm 1 mps 640 mmHg 87%
    14:00 +2°C° 0 mm 1 mps 640 mmHg 86%
    15:00 +3°C° 0 mm 1 mps 639 mmHg 86%
    16:00 +1°C° 0 mm 1 mps 639 mmHg 86%
    17:00 -3°C° 0 mm 2 mps 638 mmHg 86%
    18:00 -4°C° 0 mm 2 mps 638 mmHg 86%
    19:00 -4°C° 0 mm 2 mps 638 mmHg 84%
    20:00 -5°C° 0 mm 2 mps 638 mmHg 82%
    21:00 -5°C° 0 mm 2 mps 638 mmHg 80%
    22:00 -5°C° 0 mm 2 mps 638 mmHg 81%
    23:00 -5°C° 0 mm 2 mps 637 mmHg 81%

    Tomorrow, 19 February, Wednesday

    Time Temperature Precipitation Wind Pressure Humidity
    00:00 -6°C° 0 mm 2 mps 637 mmHg 81%
    01:00 -6°C° 0 mm 2 mps 637 mmHg 82%
    02:00 -6°C° 0 mm 2 mps 637 mmHg 83%
    03:00 -7°C° 0 mm 3 mps 636 mmHg 84%
    04:00 -7°C° 0 mm 3 mps 636 mmHg 85%
    05:00 -7°C° 0 mm 3 mps 636 mmHg 85%
    06:00 -7°C° 0 mm 3 mps 635 mmHg 86%
    07:00 -6°C° 0 mm 3 mps 635 mmHg 85%
    08:00 -5°C° 0 mm 3 mps 636 mmHg 84%
    09:00 -4°C° 0 mm 3 mps 636 mmHg 83%
    10:00 -2°C° 0 mm 3 mps 635 mmHg 82%
    11:00 -1°C° 0 mm 2 mps 635 mmHg 81%
    12:00 +1°C° 0 mm 2 mps 635 mmHg 80%
    13:00 +2°C° 0 mm 2 mps 634 mmHg 80%
    14:00 +2°C° 0 mm 2 mps 634 mmHg 80%
    15:00 +4°C° 0 mm 1 mps 633 mmHg 79%
    16:00 +2°C° 0 mm 1 mps 633 mmHg 79%
    17:00 +1°C° 0 mm 1 mps 632 mmHg 78%
    18:00 -1°C° 0 mm 1 mps 632 mmHg 78%
    19:00 -1°C° 0 mm 1 mps 632 mmHg 74%
    20:00 -1°C° 0 mm 1 mps 632 mmHg 71%
    21:00 -1°C° 0 mm 1 mps 632 mmHg 67%
    22:00 -1°C° 0 mm 1 mps 632 mmHg 66%
    23:00 -1°C° 0 mm 1 mps 631 mmHg 64%

    Day after tomorrow, 20 February, Thursday

    Time Temperature Precipitation Wind Pressure Humidity
    00:00 -2°C° 0 mm 0 mps 631 mmHg 63%
    01:00 -3°C° 0 mm 0 mps 631 mmHg 64%
    02:00 -2°C° 0 mm 1 mps 630 mmHg 65%
    03:00 -2°C° 0 mm 1 mps 630 mmHg 66%
    04:00 -2°C° 0 mm 1 mps 630 mmHg 66%
    05:00 -3°C° 0 mm 0 mps 630 mmHg 67%
    06:00 -3°C° 0 mm 0 mps 630 mmHg 68%
    07:00 -2°C° 0 mm 0 mps 630 mmHg 68%
    08:00 0°C° 0 mm 0 mps 630 mmHg 69%
    09:00 +1°C° 0 mm 0 mps 631 mmHg 69%
    10:00 +2°C° 0 mm 0 mps 631 mmHg 71%
    11:00 +3°C° 0 mm 1 mps 631 mmHg 73%
    12:00 +4°C° 0 mm 1 mps 631 mmHg 76%
    13:00 +4°C° 0 mm 1 mps 630 mmHg 76%
    14:00 +4°C° 0 mm 1 mps 630 mmHg 76%
    15:00 +4°C° 0 mm 1 mps 630 mmHg 77%
    16:00 +3°C° 0 mm 1 mps 630 mmHg 80%
    17:00 +1°C° 0 mm 0 mps 630 mmHg 82%
    18:00 0°C° 0 mm 0 mps 629 mmHg 85%
    19:00 -1°C° 0 mm 0 mps 630 mmHg 86%
    20:00 -1°C° 0 mm 0 mps 630 mmHg 86%
    21:00 -1°C° 0 mm 0 mps 630 mmHg 87%
    22:00 -1°C° 0 mm 0 mps 630 mmHg 87%
    23:00 0°C° 0 mm 1 mps 630 mmHg 87%

    21 February, Friday

    Time Temperature Precipitation Wind Pressure Humidity
    00:00 0°C° 0 mm 1 mps 630 mmHg 87%
    01:00 -1°C° 0 mm 1 mps 630 mmHg 86%
    02:00 -1°C° 0 mm 1 mps 630 mmHg 86%
    03:00 -1°C° 0 mm 1 mps 630 mmHg 86%
    04:00 -1°C° 0 mm 1 mps 630 mmHg 86%
    05:00 -3°C° 0 mm 2 mps 630 mmHg 85%
    06:00 -3°C° 0 mm 2 mps 630 mmHg 85%
    07:00 -3°C° 0 mm 2 mps 631 mmHg 84%
    08:00 -2°C° 0 mm 2 mps 631 mmHg 82%
    09:00 -1°C° 0 mm 2 mps 632 mmHg 81%
    16:00 +2°C° 0 mm 2 mps 631 mmHg 82%
    17:00 -1°C° 0 mm 2 mps 631 mmHg 85%
    18:00 -2°C° 0 mm 2 mps 631 mmHg 88%
    19:00 -2°C° 0 mm 2 mps 632 mmHg 87%
    20:00 -2°C° 0 mm 2 mps 632 mmHg 87%
    21:00 -2°C° 0 mm 2 mps 632 mmHg 86%
    22:00 -2°C° 0 mm 2 mps 633 mmHg 86%
    23:00 -2°C° 0 mm 2 mps 633 mmHg 86%

    22 February, Saturday

    Time Temperature Precipitation Wind Pressure Humidity
    00:00 -2°C° 0 mm 2 mps 633 mmHg 85%
    01:00 -2°C° 0 mm 2 mps 633 mmHg 86%
    02:00 0°C° 0 mm 1 mps 633 mmHg 86%
    03:00 0°C° 0 mm 1 mps 633 mmHg 86%
    04:00 0°C° 0 mm 1 mps 633 mmHg 86%
    05:00 0°C° 0 mm 1 mps 633 mmHg 86%
    06:00 0°C° 0 mm 1 mps 633 mmHg 86%
    07:00 +1°C° 0 mm 1 mps 633 mmHg 85%
    08:00 +1°C° 0 mm 1 mps 634 mmHg 84%
    09:00 +2°C° 0 mm 1 mps 634 mmHg 82%
    10:00 +3°C° 0 mm 1 mps 634 mmHg 81%
    11:00 +4°C° 0 mm 1 mps 634 mmHg 79%
    12:00 +4°C° 0 mm 1 mps 634 mmHg 78%
    13:00 +5°C° 0 mm 1 mps 634 mmHg 78%
    14:00 +4°C° 0 mm 0 mps 634 mmHg 79%
    15:00 +4°C° 0 mm 0 mps 633 mmHg 79%
    16:00 +3°C° 0 mm 0 mps 633 mmHg 83%
    17:00 +1°C° 0 mm 0 mps 633 mmHg 88%
    18:00 0°C° 0 mm 0 mps 633 mmHg 92%
    19:00 0°C° 0 mm 0 mps 633 mmHg 92%
    20:00 0°C° 0 mm 0 mps 633 mmHg 92%
    21:00 -1°C° 0 mm 0 mps 634 mmHg 93%
    22:00 -1°C° 0 mm 0 mps 634 mmHg 92%
    23:00 -1°C° 0 mm 0 mps 634 mmHg 92%

    23 February, Sunday

    Time Temperature Precipitation Wind Pressure Humidity
    00:00 -1°C° 0 mm 0 mps 634 mmHg 91%
    01:00 -1°C° 0 mm 0 mps 634 mmHg 90%
    02:00 -1°C° 0 mm 0 mps 634 mmHg 89%
    03:00 -1°C° 0 mm 0 mps 634 mmHg 89%
    04:00 -2°C° 0 mm 0 mps 634 mmHg 88%
    05:00 -1°C° 0 mm 1 mps 634 mmHg 87%
    06:00 -1°C° 0 mm 1 mps 634 mmHg 87%
    07:00 0°C° 0 mm 1 mps 634 mmHg 84%
    08:00 +1°C° 0 mm 1 mps 635 mmHg 82%
    09:00 +1°C° 0 mm 1 mps 635 mmHg 80%
    10:00 +2°C° 0 mm 1 mps 635 mmHg 78%
    11:00 +3°C° 0 mm 1 mps 635 mmHg 77%
    12:00 +4°C° 0 mm 1 mps 635 mmHg 75%
    13:00 +4°C° 0 mm 1 mps 635 mmHg 75%
    14:00 +4°C° 0 mm 1 mps 634 mmHg 75%
    15:00 +5°C° 0 mm 1 mps 634 mmHg 75%
    16:00 +3°C° 0 mm 1 mps 634 mmHg 79%
    17:00 +2°C° 0 mm 1 mps 633 mmHg 82%
    18:00 +1°C° 0 mm 1 mps 633 mmHg 86%
    19:00 0°C° 0 mm 1 mps 633 mmHg 85%
    20:00 0°C° 0 mm 1 mps 633 mmHg 84%
    21:00 0°C° 0 mm 1 mps 633 mmHg 83%
    22:00 -3°C° 0 mm 2 mps 633 mmHg 83%
    23:00 -3°C° 0 mm 2 mps 633 mmHg 82%
    Show more